TKY433 LJLJ-EPKK

Flight info

Callsign TKY433
Flight time 1h 2m
Altitude 35000
Route MODRO DCT VALLU DCT GOLVA DCT LEDVA DCT NETIR
Aircraft B738/M-SDE2E3FGHIRWXY/LB1

Departure

Time 2026-04-25 07:27
Airport Ljubljana Jože Pučnik Airport (LJLJ)

Arrival

Time 2026-04-25 08:29
Airport Kraków John Paul II International Airport (EPKK)
Time Latitude Longitude Altitude Speed Heading
2026-04-25 07:08 46.23151 14.45179 1259 ft 0 kts 37°
2026-04-25 07:12 46.23138 14.45164 1265 ft 2 kts 39°
2026-04-25 07:12 46.23130 14.45154 1265 ft 2 kts 42°
2026-04-25 07:13 46.23118 14.45137 1261 ft 2 kts 52°
2026-04-25 07:13 46.23111 14.45115 1267 ft 2 kts 97°
2026-04-25 07:13 46.23115 14.45097 1262 ft 1 kts 126°
2026-04-25 07:13 46.23117 14.45095 1261 ft 0 kts 126°
2026-04-25 07:15 46.23116 14.45097 1262 ft 1 kts 125°
2026-04-25 07:16 46.23100 14.45131 1263 ft 8 kts 124°
2026-04-25 07:16 46.23043 14.45194 1259 ft 14 kts 189°
2026-04-25 07:16 46.22951 14.45137 1249 ft 15 kts 166°
2026-04-25 07:16 46.22876 14.45238 1248 ft 15 kts 124°
2026-04-25 07:17 46.22816 14.45357 1248 ft 15 kts 127°
2026-04-25 07:17 46.22756 14.45474 1256 ft 14 kts 126°
2026-04-25 07:17 46.22696 14.45586 1249 ft 15 kts 127°
2026-04-25 07:17 46.22627 14.45719 1249 ft 18 kts 126°
2026-04-25 07:18 46.22549 14.45876 1243 ft 20 kts 126°
2026-04-25 07:18 46.22466 14.46040 1253 ft 20 kts 125°
2026-04-25 07:18 46.22388 14.46195 1242 ft 19 kts 126°
2026-04-25 07:18 46.22309 14.46347 1243 ft 19 kts 127°
2026-04-25 07:19 46.22233 14.46494 1239 ft 18 kts 127°
2026-04-25 07:19 46.22161 14.46636 1241 ft 17 kts 126°
2026-04-25 07:19 46.22091 14.46773 1245 ft 17 kts 126°
2026-04-25 07:19 46.22023 14.46905 1237 ft 16 kts 126°
2026-04-25 07:20 46.21958 14.47032 1234 ft 16 kts 126°
2026-04-25 07:20 46.21888 14.47169 1241 ft 18 kts 125°
2026-04-25 07:20 46.21806 14.47329 1236 ft 21 kts 126°
2026-04-25 07:20 46.21782 14.47376 1240 ft 9 kts 126°
2026-04-25 07:23 46.21763 14.47413 1246 ft 8 kts 127°
2026-04-25 07:24 46.21727 14.47479 1243 ft 8 kts 128°
2026-04-25 07:24 46.21692 14.47550 1233 ft 10 kts 124°
2026-04-25 07:24 46.21632 14.47596 1233 ft 9 kts 185°
2026-04-25 07:24 46.21581 14.47557 1244 ft 8 kts 216°
2026-04-25 07:25 46.21534 14.47507 1242 ft 8 kts 219°
2026-04-25 07:25 46.21519 14.47483 1238 ft 1 kts 251°
2026-04-25 07:25 46.21516 14.47449 1238 ft 6 kts 272°
2026-04-25 07:25 46.21527 14.47413 1236 ft 0 kts 301°
2026-04-25 07:26 46.21584 14.47296 1249 ft 44 kts 306°
2026-04-25 07:26 46.21917 14.46651 1247 ft 114 kts 306°
2026-04-25 07:26 46.22513 14.45475 1263 ft 171 kts 306°
2026-04-25 07:27 46.23230 14.44024 1904 ft 175 kts 301°
2026-04-25 07:27 46.23584 14.42392 2775 ft 177 kts 274°
2026-04-25 07:27 46.23476 14.40554 3473 ft 186 kts 251°
2026-04-25 07:27 46.22719 14.39171 4438 ft 177 kts 206°
2026-04-25 07:28 46.21493 14.38856 5025 ft 196 kts 179°
2026-04-25 07:28 46.20048 14.39246 5325 ft 223 kts 165°
2026-04-25 07:28 46.18525 14.39878 5909 ft 232 kts 165°
2026-04-25 07:28 46.16945 14.40408 6597 ft 235 kts 181°
2026-04-25 07:29 46.15283 14.40026 6978 ft 251 kts 196°
2026-04-25 07:29 46.13492 14.39375 7289 ft 277 kts 195°
2026-04-25 07:29 46.11561 14.38697 8028 ft 285 kts 195°
2026-04-25 07:29 46.09643 14.38039 8854 ft 290 kts 194°
2026-04-25 07:30 46.07660 14.37363 9706 ft 295 kts 194°
2026-04-25 07:30 46.05644 14.36694 10373 ft 305 kts 191°
2026-04-25 07:30 46.03437 14.36822 10556 ft 333 kts 162°
2026-04-25 07:30 46.01383 14.38535 10754 ft 355 kts 134°
2026-04-25 07:31 46.00037 14.41548 11175 ft 365 kts 107°
2026-04-25 07:31 45.99757 14.45144 11846 ft 365 kts 80°
2026-04-25 07:31 46.00590 14.48547 12630 ft 360 kts 54°
2026-04-25 07:31 46.02344 14.51061 13398 ft 358 kts 30°
2026-04-25 07:32 46.04571 14.52686 14143 ft 360 kts 25°
2026-04-25 07:32 46.06822 14.54283 14783 ft 364 kts 25°
2026-04-25 07:32 46.09085 14.55999 15424 ft 369 kts 30°
2026-04-25 07:32 46.11115 14.58272 16059 ft 375 kts 45°
2026-04-25 07:33 46.12606 14.61397 16715 ft 381 kts 64°
2026-04-25 07:33 46.13398 14.65051 17400 ft 386 kts 77°
2026-04-25 07:33 46.13867 14.68823 18051 ft 388 kts 75°
2026-04-25 07:33 46.14605 14.72551 18617 ft 391 kts 70°
2026-04-25 07:34 46.15496 14.76306 19156 ft 394 kts 68°
2026-04-25 07:34 46.16431 14.80049 19691 ft 397 kts 68°
2026-04-25 07:34 46.17372 14.83808 20234 ft 400 kts 68°
2026-04-25 07:34 46.18311 14.87615 20739 ft 404 kts 69°
2026-04-25 07:35 46.19242 14.91447 21243 ft 408 kts 69°
2026-04-25 07:35 46.20172 14.95324 21754 ft 410 kts 69°
2026-04-25 07:35 46.21102 14.99227 22252 ft 413 kts 69°
2026-04-25 07:35 46.22038 15.03172 22731 ft 417 kts 69°
2026-04-25 07:36 46.22984 15.07176 23196 ft 420 kts 69°
2026-04-25 07:36 46.23929 15.11177 23673 ft 423 kts 69°
2026-04-25 07:36 46.24883 15.15223 24079 ft 426 kts 69°
2026-04-25 07:36 46.25843 15.19299 24469 ft 429 kts 69°
2026-04-25 07:37 46.26803 15.23382 24855 ft 431 kts 69°
2026-04-25 07:37 46.27771 15.27475 25239 ft 433 kts 67°
2026-04-25 07:37 46.29145 15.31326 25586 ft 432 kts 53°
2026-04-25 07:37 46.31129 15.34616 25955 ft 432 kts 41°
2026-04-25 07:38 46.33564 15.37138 26298 ft 433 kts 27°
2026-04-25 07:38 46.36234 15.39150 26680 ft 434 kts 26°
2026-04-25 07:38 46.38895 15.41079 27021 ft 436 kts 25°
2026-04-25 07:38 46.41654 15.43077 27343 ft 439 kts 26°
2026-04-25 07:39 46.44405 15.45097 27659 ft 442 kts 26°
2026-04-25 07:39 46.47140 15.47134 27990 ft 443 kts 26°
2026-04-25 07:39 46.49835 15.49163 28301 ft 445 kts 26°
2026-04-25 07:39 46.52610 15.51264 28599 ft 448 kts 26°
2026-04-25 07:40 46.55377 15.53367 28889 ft 450 kts 26°
2026-04-25 07:40 46.58156 15.55481 29198 ft 452 kts 26°
2026-04-25 07:40 46.60946 15.57606 29596 ft 451 kts 26°
2026-04-25 07:40 46.63720 15.59719 30046 ft 450 kts 26°
2026-04-25 07:41 46.66487 15.61829 30448 ft 448 kts 26°
2026-04-25 07:41 46.69253 15.63939 30808 ft 447 kts 26°
2026-04-25 07:41 46.72031 15.65919 31146 ft 445 kts 21°
2026-04-25 07:41 46.74906 15.67565 31485 ft 444 kts 19°
2026-04-25 07:42 46.77810 15.69119 31817 ft 443 kts 18°
2026-04-25 07:42 46.80709 15.70636 32185 ft 441 kts 18°
2026-04-25 07:42 46.83598 15.72151 32555 ft 440 kts 18°
2026-04-25 07:42 46.86472 15.73672 32869 ft 440 kts 18°
2026-04-25 07:43 46.89349 15.75212 33178 ft 439 kts 18°
2026-04-25 07:43 46.92184 15.76742 33523 ft 438 kts 18°
2026-04-25 07:43 46.95050 15.78299 33889 ft 436 kts 18°
2026-04-25 07:43 46.97862 15.79832 34181 ft 436 kts 18°
2026-04-25 07:44 47.00713 15.81390 34408 ft 436 kts 18°
2026-04-25 07:44 47.03540 15.82937 34649 ft 436 kts 18°
2026-04-25 07:44 47.06401 15.84504 34931 ft 435 kts 18°
2026-04-25 07:44 47.09221 15.86050 35087 ft 436 kts 18°
2026-04-25 07:45 47.14955 15.89198 35081 ft 438 kts 18°
2026-04-25 07:45 47.20636 15.92326 35078 ft 435 kts 18°
2026-04-25 07:46 47.26288 15.95444 35085 ft 433 kts 18°
2026-04-25 07:46 47.31943 15.98570 35079 ft 433 kts 17°
2026-04-25 07:47 47.37547 16.01674 35077 ft 433 kts 17°
2026-04-25 07:47 47.43199 16.04812 35072 ft 435 kts 17°
2026-04-25 07:48 47.48850 16.07957 35077 ft 437 kts 17°
2026-04-25 07:48 47.54597 16.11163 35081 ft 440 kts 17°
2026-04-25 07:49 47.60298 16.14351 35076 ft 442 kts 17°
2026-04-25 07:49 47.66081 16.17592 35073 ft 445 kts 17°
2026-04-25 07:50 47.71878 16.20850 35081 ft 446 kts 17°
2026-04-25 07:50 47.77689 16.24124 35067 ft 446 kts 17°
2026-04-25 07:51 47.83494 16.27402 35075 ft 446 kts 17°
2026-04-25 07:51 47.89279 16.30677 35076 ft 445 kts 16°
2026-04-25 07:52 47.95060 16.33957 35082 ft 443 kts 16°
2026-04-25 07:52 48.00837 16.37242 35077 ft 442 kts 16°
2026-04-25 07:53 48.06537 16.40491 35078 ft 441 kts 16°
2026-04-25 07:53 48.12270 16.43767 35075 ft 440 kts 16°
2026-04-25 07:54 48.17983 16.47039 35079 ft 440 kts 15°
2026-04-25 07:54 48.23703 16.50323 35078 ft 440 kts 15°
2026-04-25 07:55 48.29425 16.53615 35078 ft 440 kts 15°
2026-04-25 07:55 48.35148 16.56916 35078 ft 441 kts 15°
2026-04-25 07:56 48.40891 16.60237 35082 ft 442 kts 15°
2026-04-25 07:56 48.46604 16.63549 35077 ft 443 kts 15°
2026-04-25 07:57 48.52373 16.66901 35078 ft 444 kts 15°
2026-04-25 07:57 48.58148 16.70266 35070 ft 446 kts 15°
2026-04-25 07:58 48.63948 16.73653 35068 ft 446 kts 15°
2026-04-25 07:58 48.68761 16.76483 35068 ft 448 kts 17°
2026-04-25 07:59 48.72411 16.79581 35072 ft 459 kts 30°
2026-04-25 07:59 48.74883 16.82698 35070 ft 467 kts 39°
2026-04-25 07:59 48.78386 16.89010 35070 ft 473 kts 46°
2026-04-25 08:00 48.82402 16.96968 35069 ft 474 kts 47°
2026-04-25 08:00 48.86402 17.04879 35068 ft 475 kts 46°
2026-04-25 08:01 48.90481 17.12842 35072 ft 475 kts 46°
2026-04-25 08:01 48.94556 17.20767 35071 ft 475 kts 46°
2026-04-25 08:02 48.98621 17.28688 35078 ft 475 kts 46°
2026-04-25 08:02 49.02696 17.36658 35076 ft 476 kts 46°
2026-04-25 08:03 49.06725 17.44566 35079 ft 476 kts 46°
2026-04-25 08:03 49.10787 17.52558 34847 ft 479 kts 46°
2026-04-25 08:04 49.12825 17.56577 34605 ft 477 kts 46°
2026-04-25 08:04 49.14858 17.60598 34361 ft 476 kts 46°
2026-04-25 08:04 49.16883 17.64605 34133 ft 477 kts 46°
2026-04-25 08:04 49.18911 17.68623 33881 ft 478 kts 46°
2026-04-25 08:05 49.20943 17.72655 33612 ft 479 kts 46°
2026-04-25 08:05 49.22973 17.76689 33336 ft 480 kts 46°
2026-04-25 08:05 49.25007 17.80738 33079 ft 480 kts 46°
2026-04-25 08:05 49.27044 17.84799 32809 ft 480 kts 46°
2026-04-25 08:06 49.29074 17.88854 32550 ft 480 kts 46°
2026-04-25 08:06 49.31102 17.92911 32052 ft 479 kts 46°
2026-04-25 08:06 49.33121 17.96959 31588 ft 474 kts 46°
2026-04-25 08:06 49.35086 18.00909 31085 ft 470 kts 46°
2026-04-25 08:07 49.37053 18.04864 30599 ft 466 kts 46°
2026-04-25 08:07 49.39021 18.08825 30117 ft 463 kts 46°
2026-04-25 08:07 49.40966 18.12743 29541 ft 459 kts 46°
2026-04-25 08:07 49.42887 18.16619 29036 ft 454 kts 46°
2026-04-25 08:08 49.44798 18.20481 28541 ft 450 kts 46°
2026-04-25 08:08 49.46684 18.24297 28042 ft 445 kts 46°
2026-04-25 08:08 49.48545 18.28068 27545 ft 441 kts 46°
2026-04-25 08:08 49.50391 18.31813 27078 ft 437 kts 46°
2026-04-25 08:09 49.52200 18.35488 26587 ft 434 kts 46°
2026-04-25 08:09 49.54013 18.39177 26122 ft 431 kts 46°
2026-04-25 08:09 49.55811 18.42841 25657 ft 428 kts 46°
2026-04-25 08:09 49.57603 18.46495 25181 ft 425 kts 47°
2026-04-25 08:10 49.59371 18.50107 24721 ft 422 kts 47°
2026-04-25 08:10 49.61139 18.53726 24263 ft 419 kts 47°
2026-04-25 08:10 49.62889 18.57310 23772 ft 418 kts 47°
2026-04-25 08:10 49.64633 18.60886 23261 ft 416 kts 47°
2026-04-25 08:11 49.66369 18.64452 22751 ft 413 kts 47°
2026-04-25 08:11 49.68109 18.67954 22281 ft 406 kts 42°
2026-04-25 08:11 49.70237 18.70666 21859 ft 389 kts 24°
2026-04-25 08:11 49.72657 18.72237 21575 ft 370 kts
2026-04-25 08:12 49.75131 18.73178 21168 ft 364 kts
2026-04-25 08:12 49.77596 18.74007 20734 ft 362 kts
2026-04-25 08:12 49.80052 18.74851 20309 ft 360 kts
2026-04-25 08:12 49.82479 18.75727 19887 ft 358 kts
2026-04-25 08:13 49.84896 18.76623 19455 ft 356 kts
2026-04-25 08:13 49.87246 18.77719 19001 ft 362 kts 20°
2026-04-25 08:13 49.89312 18.80003 18566 ft 372 kts 41°
2026-04-25 08:14 49.91369 18.87366 17740 ft 385 kts 86°
2026-04-25 08:14 49.91216 18.91463 17623 ft 375 kts 93°
2026-04-25 08:14 49.90944 18.95434 17428 ft 366 kts 94°
2026-04-25 08:14 49.90687 18.99334 17268 ft 357 kts 93°
2026-04-25 08:15 49.90457 19.03129 17094 ft 349 kts 92°
2026-04-25 08:15 49.90239 19.06879 16753 ft 347 kts 92°
2026-04-25 08:15 49.90050 19.10595 16385 ft 345 kts 87°
2026-04-25 08:15 49.90327 19.14243 15928 ft 336 kts 74°
2026-04-25 08:16 49.90815 19.17768 15438 ft 332 kts 73°
2026-04-25 08:16 49.91319 19.21212 14911 ft 330 kts 72°
2026-04-25 08:16 49.91826 19.24685 14418 ft 328 kts 73°
2026-04-25 08:16 49.92318 19.28128 13944 ft 325 kts 73°
2026-04-25 08:17 49.92796 19.31548 13436 ft 323 kts 73°
2026-04-25 08:17 49.93264 19.34945 12920 ft 320 kts 73°
2026-04-25 08:17 49.93723 19.38314 12430 ft 317 kts 73°
2026-04-25 08:17 49.94171 19.41632 11929 ft 314 kts 73°
2026-04-25 08:18 49.94611 19.44899 11438 ft 312 kts 73°
2026-04-25 08:18 49.95051 19.48188 10959 ft 309 kts 73°
2026-04-25 08:18 49.95483 19.51436 10546 ft 305 kts 73°
2026-04-25 08:18 49.95905 19.54613 10268 ft 296 kts 73°
2026-04-25 08:19 49.96314 19.57710 9912 ft 291 kts 73°
2026-04-25 08:19 49.96721 19.60778 9452 ft 288 kts 73°
2026-04-25 08:19 49.97124 19.63821 9047 ft 285 kts 73°
2026-04-25 08:19 49.97514 19.66789 8758 ft 277 kts 74°
2026-04-25 08:20 49.97894 19.69678 8488 ft 271 kts 74°
2026-04-25 08:20 49.98269 19.72533 8228 ft 269 kts 74°
2026-04-25 08:20 49.98647 19.75407 7993 ft 272 kts 74°
2026-04-25 08:20 49.99032 19.78330 7740 ft 279 kts 75°
2026-04-25 08:21 49.99417 19.81283 7468 ft 278 kts 75°
2026-04-25 08:21 49.99793 19.84170 7196 ft 277 kts 75°
2026-04-25 08:21 50.00173 19.87101 6929 ft 275 kts 75°
2026-04-25 08:21 50.00550 19.90015 6669 ft 274 kts 75°
2026-04-25 08:22 50.00925 19.92913 6407 ft 273 kts 76°
2026-04-25 08:22 50.01299 19.95808 6108 ft 273 kts 76°
2026-04-25 08:22 50.01672 19.98697 5840 ft 271 kts 76°
2026-04-25 08:22 50.02035 20.01528 5601 ft 262 kts 76°
2026-04-25 08:23 50.02382 20.04246 5458 ft 250 kts 76°
2026-04-25 08:23 50.02901 20.06775 5079 ft 245 kts 50°
2026-04-25 08:23 50.04177 20.08261 4917 ft 222 kts 14°
2026-04-25 08:23 50.05620 20.08741 4822 ft 204 kts 360°
2026-04-25 08:24 50.06991 20.08857 4700 ft 191 kts 356°
2026-04-25 08:24 50.08288 20.08933 4537 ft 183 kts 356°
2026-04-25 08:24 50.09524 20.08892 4378 ft 177 kts 342°
2026-04-25 08:24 50.10505 20.07922 4310 ft 160 kts 295°
2026-04-25 08:25 50.10733 20.06265 4201 ft 163 kts 276°
2026-04-25 08:25 50.10856 20.04480 3988 ft 167 kts 277°
2026-04-25 08:25 50.10897 20.02681 3759 ft 166 kts 267°
2026-04-25 08:25 50.10796 20.00899 3538 ft 163 kts 265°
2026-04-25 08:26 50.10639 19.99161 3324 ft 162 kts 262°
2026-04-25 08:26 50.10419 19.97437 3107 ft 161 kts 259°
2026-04-25 08:26 50.10183 19.95725 2879 ft 163 kts 259°
2026-04-25 08:26 50.09944 19.94026 2654 ft 156 kts 258°
2026-04-25 08:27 50.09717 19.92414 2459 ft 151 kts 259°
2026-04-25 08:27 50.09496 19.90831 2256 ft 151 kts 258°
2026-04-25 08:27 50.09276 19.89264 2050 ft 143 kts 257°
2026-04-25 08:27 50.09068 19.87771 1842 ft 139 kts 257°
2026-04-25 08:28 50.08863 19.86311 1631 ft 138 kts 258°
2026-04-25 08:28 50.08662 19.84866 1463 ft 138 kts 257°
2026-04-25 08:28 50.08457 19.83400 1254 ft 138 kts 256°
2026-04-25 08:28 50.08249 19.81914 1085 ft 141 kts 256°
2026-04-25 08:29 50.08036 19.80443 936 ft 139 kts 257°
2026-04-25 08:29 50.07842 19.78992 797 ft 129 kts 256°
2026-04-25 08:29 50.07683 19.77866 788 ft 77 kts 258°
2026-04-25 08:29 50.07622 19.77416 790 ft 33 kts 257°
2026-04-25 08:30 50.07579 19.77267 793 ft 10 kts 215°
2026-04-25 08:30 50.07505 19.77236 788 ft 13 kts 185°
2026-04-25 08:30 50.07463 19.77232 786 ft 0 kts 183°
2026-04-25 08:31 50.07444 19.77231 786 ft 7 kts 183°
2026-04-25 08:32 50.07382 19.77232 786 ft 9 kts 163°
2026-04-25 08:32 50.07359 19.77309 786 ft 9 kts 81°
2026-04-25 08:32 50.07369 19.77399 786 ft 9 kts 81°
2026-04-25 08:32 50.07387 19.77529 786 ft 16 kts 77°
2026-04-25 08:33 50.07414 19.77729 786 ft 21 kts 77°
2026-04-25 08:33 50.07447 19.77954 786 ft 21 kts 77°
2026-04-25 08:33 50.07479 19.78174 786 ft 20 kts 77°
2026-04-25 08:33 50.07508 19.78387 786 ft 20 kts 77°
2026-04-25 08:34 50.07537 19.78594 786 ft 19 kts 77°
2026-04-25 08:34 50.07564 19.78793 786 ft 19 kts 77°
2026-04-25 08:34 50.07591 19.78988 786 ft 18 kts 78°
2026-04-25 08:34 50.07615 19.79175 786 ft 17 kts 79°
2026-04-25 08:35 50.07640 19.79354 786 ft 17 kts 79°
2026-04-25 08:35 50.07662 19.79508 786 ft 9 kts 76°
2026-04-25 08:35 50.07671 19.79598 786 ft 8 kts 93°
2026-04-25 08:35 50.07653 19.79682 786 ft 8 kts 115°
2026-04-25 08:36 50.07627 19.79758 786 ft 8 kts 120°
2026-04-25 08:36 50.07601 19.79826 786 ft 6 kts 119°
2026-04-25 08:36 50.07577 19.79881 786 ft 6 kts 129°
2026-04-25 08:36 50.07545 19.79919 786 ft 6 kts 160°
2026-04-25 08:37 50.07504 19.79930 786 ft 6 kts 175°
2026-04-25 08:37 50.07470 19.79940 786 ft 0 kts 167°